This demonstration page uses our WeatherBlox Daily Observations layout. Learn more.

Left ArrowRight Arrow

39.92423, -83.80882

Hourly Observations for March 13, 2021

Temp ( °F °C ) Dew Point ( °F °C ) Humidity (%) Winds ( mph kmh ) Pressure ( in mb ) Visibility ( mi km ) Precip ( " mm )
12:56 am 00:56 Clear 40 4.4 21 -6.1 47 47 N 8 13 30.42 1030 10 16 N/A
1:56 am 01:56 Clear 38 3.3 19 -7.2 46 46 N 7 11 30.43 1031 10 16 N/A
2:56 am 02:56 Clear 36 2.2 18 -7.8 48 48 N 8 13 30.44 1031 10 16 N/A
3:56 am 03:56 Clear 33 0.6 16 -8.9 49 49 N 7 11 30.44 1031 10 16 N/A
4:56 am 04:56 Clear 32 undefined 19 -7.2 59 59 N 7 11 30.45 1031 10 16 N/A
5:56 am 05:56 Clear 30 -1.1 20 -6.7 66 66 NNE 7 11 30.46 1032 10 16 N/A
6:56 am 06:56 Sunny 28 -2.2 23 -5 81 81 NE 9 15 30.46 1031 10 16 N/A
7:56 am 07:56 Sunny 32 undefined 27 -2.8 82 82 E 7 11 30.47 1032 10 16 N/A
8:56 am 08:56 Sunny 36 2.2 24 -4.4 62 62 E 8 13 30.49 1033 10 16 N/A
9:56 am 09:56 Sunny 39 3.9 24 -4.4 55 55 E 5 7 30.48 1032 10 16 N/A
10:56 am 10:56 Sunny 41 5 24 -4.4 51 51 N N/A 30.48 1032 10 16 N/A
11:56 am 11:56 Sunny 44 6.7 21 -6.1 40 40 N N/A 30.45 1031 10 16 N/A
12:56 pm 12:56 Sunny 46 7.8 23 -5 40 40 SW 5 7 30.44 1031 10 16 N/A
1:56 pm 13:56 Sunny 47 8.3 19 -7.2 33 33 NNW 6 9 30.41 1030 10 16 N/A
2:56 pm 14:56 Sunny 48 8.9 23 -5 37 37 N N/A 30.39 1029 10 16 N/A
3:56 pm 15:56 Sunny 50 10 23 -5 35 35 W 5 7 30.38 1029 10 16 N/A
4:56 pm 16:56 Sunny 49 9.4 25 -3.9 39 39 W 6 9 30.36 1028 10 16 N/A
5:56 pm 17:56 Sunny 46 7.8 24 -4.4 42 42 WNW 7 11 30.37 1028 10 16 N/A
6:56 pm 18:56 Clear 44 6.7 22 -5.6 41 41 NW 5 7 30.37 1029 10 16 N/A
7:56 pm 19:56 Clear 40 4.4 23 -5 51 51 NW 5 7 30.37 1028 10 16 N/A
8:56 pm 20:56 Clear 38 3.3 24 -4.4 57 57 NNW 3 6 30.37 1029 10 16 N/A
9:56 pm 21:56 Clear 38 3.3 22 -5.6 52 52 N N/A 30.36 1028 10 16 N/A
10:56 pm 22:56 Clear 34 1.1 27 -2.8 76 76 N N/A 30.34 1028 10 16 N/A
11:56 pm 23:56 Clear 33 0.6 26 -3.3 75 75 NNW 3 6 30.33 1027 10 16 N/A

Powered by AerisWeather